Year,Month,Day,Hour,Minute,Value (Times are PST for temperature in C)
2018,01,14,00,00,3.60
2018,01,14,00,01,3.60
2018,01,14,00,02,3.60
2018,01,14,00,03,3.60
2018,01,14,00,04,3.50
2018,01,14,00,05,3.50
2018,01,14,00,06,3.50
2018,01,14,00,07,3.50
2018,01,14,00,08,3.50
2018,01,14,00,09,3.50
2018,01,14,00,10,3.50
2018,01,14,00,11,3.50
2018,01,14,00,12,3.50
2018,01,14,00,13,3.50
2018,01,14,00,14,3.50
2018,01,14,00,15,3.50
2018,01,14,00,16,3.50
2018,01,14,00,17,3.50
2018,01,14,00,18,3.50
2018,01,14,00,19,3.40
2018,01,14,00,20,3.40
2018,01,14,00,21,3.40
2018,01,14,00,22,3.40
2018,01,14,00,23,3.40
2018,01,14,00,24,3.40
2018,01,14,00,25,3.40
2018,01,14,00,26,3.40
2018,01,14,00,27,3.40
2018,01,14,00,28,3.40
2018,01,14,00,29,3.40
2018,01,14,00,30,3.40
2018,01,14,00,31,3.40
2018,01,14,00,32,3.40
2018,01,14,00,33,3.30
2018,01,14,00,34,3.30
2018,01,14,00,35,3.30
2018,01,14,00,36,3.30
2018,01,14,00,37,3.30
2018,01,14,00,38,3.30
2018,01,14,00,39,3.30
2018,01,14,00,40,3.30
2018,01,14,00,41,3.30
2018,01,14,00,42,3.30
2018,01,14,00,43,3.30
2018,01,14,00,44,3.30
2018,01,14,00,45,3.30
2018,01,14,00,46,3.30
2018,01,14,00,47,3.30
2018,01,14,00,48,3.30
2018,01,14,00,49,3.30
2018,01,14,00,50,3.30
2018,01,14,00,51,3.30
2018,01,14,00,52,3.30
2018,01,14,00,53,3.30
2018,01,14,00,54,3.30
2018,01,14,00,55,3.30
2018,01,14,00,56,3.30
2018,01,14,00,57,3.30
2018,01,14,00,58,3.30
2018,01,14,00,59,3.30
2018,01,14,01,00,3.30
2018,01,14,01,01,3.30
2018,01,14,01,02,3.30
2018,01,14,01,03,3.30
2018,01,14,01,04,3.30
2018,01,14,01,05,3.30
2018,01,14,01,06,3.30
2018,01,14,01,07,3.30
2018,01,14,01,08,3.40
2018,01,14,01,09,3.40
2018,01,14,01,10,3.40
2018,01,14,01,11,3.40
2018,01,14,01,12,3.40
2018,01,14,01,13,3.40
2018,01,14,01,14,3.40
2018,01,14,01,15,3.40
2018,01,14,01,16,3.40
2018,01,14,01,17,3.40
2018,01,14,01,18,3.30
2018,01,14,01,19,3.30
2018,01,14,01,20,3.30
2018,01,14,01,21,3.30
2018,01,14,01,22,3.30
2018,01,14,01,23,3.30
2018,01,14,01,24,3.30
2018,01,14,01,25,3.30
2018,01,14,01,26,3.30
2018,01,14,01,27,3.30
2018,01,14,01,28,3.30
2018,01,14,01,29,3.30
2018,01,14,01,30,3.30
2018,01,14,01,31,3.20
2018,01,14,01,32,3.20
2018,01,14,01,33,3.20
2018,01,14,01,34,3.20
2018,01,14,01,35,3.20
2018,01,14,01,36,3.20
2018,01,14,01,37,3.20
2018,01,14,01,38,3.20
2018,01,14,01,39,3.20
2018,01,14,01,40,3.20
2018,01,14,01,41,3.20
2018,01,14,01,42,3.20
2018,01,14,01,43,3.20
2018,01,14,01,44,3.20
2018,01,14,01,45,3.20
2018,01,14,01,46,3.20
2018,01,14,01,47,3.20
2018,01,14,01,48,3.20
2018,01,14,01,49,3.20
2018,01,14,01,50,3.20
2018,01,14,01,51,3.20
2018,01,14,01,52,3.20
2018,01,14,01,53,3.20
2018,01,14,01,54,3.20
2018,01,14,01,55,3.20
2018,01,14,01,56,3.20
2018,01,14,01,57,3.20
2018,01,14,01,58,3.20
2018,01,14,01,59,3.20
2018,01,14,02,00,3.20
2018,01,14,02,01,3.20
2018,01,14,02,02,3.20
2018,01,14,02,03,3.20
2018,01,14,02,04,3.20
2018,01,14,02,05,3.20
2018,01,14,02,06,3.20
2018,01,14,02,07,3.20
2018,01,14,02,08,3.20
2018,01,14,02,09,3.20
2018,01,14,02,10,3.20
2018,01,14,02,11,3.20
2018,01,14,02,12,3.20
2018,01,14,02,13,3.20
2018,01,14,02,14,3.20
2018,01,14,02,15,3.20
2018,01,14,02,16,3.10
2018,01,14,02,17,3.10
2018,01,14,02,18,3.10
2018,01,14,02,19,3.10
2018,01,14,02,20,3.10
2018,01,14,02,21,3.10
2018,01,14,02,22,3.10
2018,01,14,02,23,3.10
2018,01,14,02,24,3.10
2018,01,14,02,25,3.10
2018,01,14,02,26,3.10
2018,01,14,02,27,3.10
2018,01,14,02,28,3.00
2018,01,14,02,29,3.00
2018,01,14,02,30,3.00
2018,01,14,02,31,3.00
2018,01,14,02,32,3.00
2018,01,14,02,33,3.00
2018,01,14,02,34,2.90
2018,01,14,02,35,2.90
2018,01,14,02,36,2.90
2018,01,14,02,37,2.90
2018,01,14,02,38,2.90
2018,01,14,02,39,2.90
2018,01,14,02,40,2.90
2018,01,14,02,41,2.90
2018,01,14,02,42,2.90
2018,01,14,02,43,2.90
2018,01,14,02,44,2.90
2018,01,14,02,45,2.90
2018,01,14,02,46,2.90
2018,01,14,02,47,2.90
2018,01,14,02,48,2.90
2018,01,14,02,49,2.90
2018,01,14,02,50,2.90
2018,01,14,02,51,2.90
2018,01,14,02,52,2.90
2018,01,14,02,53,2.90
2018,01,14,02,54,2.90
2018,01,14,02,55,2.90
2018,01,14,02,56,2.90
2018,01,14,02,57,2.90
2018,01,14,02,58,2.90
2018,01,14,02,59,2.90
2018,01,14,03,00,2.90
2018,01,14,03,01,2.90
2018,01,14,03,02,2.90
2018,01,14,03,03,2.90
2018,01,14,03,04,2.90
2018,01,14,03,05,2.80
2018,01,14,03,06,2.80
2018,01,14,03,07,2.80
2018,01,14,03,08,2.80
2018,01,14,03,09,2.80
2018,01,14,03,10,2.80
2018,01,14,03,11,2.80
2018,01,14,03,12,2.80
2018,01,14,03,13,2.80
2018,01,14,03,14,2.80
2018,01,14,03,15,2.80
2018,01,14,03,16,2.80
2018,01,14,03,17,2.70
2018,01,14,03,18,2.70
2018,01,14,03,19,2.70
2018,01,14,03,20,2.70
2018,01,14,03,21,2.70
2018,01,14,03,22,2.70
2018,01,14,03,23,2.70
2018,01,14,03,24,2.70
2018,01,14,03,25,2.60
2018,01,14,03,26,2.60
2018,01,14,03,27,2.60
2018,01,14,03,28,2.60
2018,01,14,03,29,2.60
2018,01,14,03,30,2.60
2018,01,14,03,31,2.60
2018,01,14,03,32,2.60
2018,01,14,03,33,2.60
2018,01,14,03,34,2.60
2018,01,14,03,35,2.60
2018,01,14,03,36,2.60
2018,01,14,03,37,2.60
2018,01,14,03,38,2.60
2018,01,14,03,39,2.60
2018,01,14,03,40,2.50
2018,01,14,03,41,2.50
2018,01,14,03,42,2.50
2018,01,14,03,43,2.50
2018,01,14,03,44,2.50
2018,01,14,03,45,2.40
2018,01,14,03,46,2.40
2018,01,14,03,47,2.40
2018,01,14,03,48,2.40
2018,01,14,03,49,2.40
2018,01,14,03,50,2.40
2018,01,14,03,51,2.40
2018,01,14,03,52,2.40
2018,01,14,03,53,2.40
2018,01,14,03,54,2.40
2018,01,14,03,55,2.40
2018,01,14,03,56,2.40
2018,01,14,03,57,2.40
2018,01,14,03,58,2.40
2018,01,14,03,59,2.40
2018,01,14,04,00,2.40
2018,01,14,04,01,2.40
2018,01,14,04,02,2.40
2018,01,14,04,03,2.40
2018,01,14,04,04,2.40
2018,01,14,04,05,2.40
2018,01,14,04,06,2.40
2018,01,14,04,07,2.40
2018,01,14,04,08,2.40
2018,01,14,04,09,2.40
2018,01,14,04,10,2.40
2018,01,14,04,11,2.40
2018,01,14,04,12,2.40
2018,01,14,04,13,2.40
2018,01,14,04,14,2.40
2018,01,14,04,15,2.50
2018,01,14,04,16,2.50
2018,01,14,04,17,2.50
2018,01,14,04,18,2.50
2018,01,14,04,19,2.50
2018,01,14,04,20,2.50
2018,01,14,04,21,2.50
2018,01,14,04,22,2.60
2018,01,14,04,23,2.60
2018,01,14,04,24,2.60
2018,01,14,04,25,2.60
2018,01,14,04,26,2.60
2018,01,14,04,27,2.60
2018,01,14,04,28,2.60
2018,01,14,04,29,2.60
2018,01,14,04,30,2.60
2018,01,14,04,31,2.60
2018,01,14,04,32,2.70
2018,01,14,04,33,2.70
2018,01,14,04,34,2.70
2018,01,14,04,35,2.70
2018,01,14,04,36,2.70
2018,01,14,04,37,2.70
2018,01,14,04,38,2.70
2018,01,14,04,39,2.70
2018,01,14,04,40,2.70
2018,01,14,04,41,2.70
2018,01,14,04,42,2.70
2018,01,14,04,43,2.70
2018,01,14,04,44,2.70
2018,01,14,04,45,2.70
2018,01,14,04,46,2.70
2018,01,14,04,47,2.70
2018,01,14,04,48,2.70
2018,01,14,04,49,2.70
2018,01,14,04,50,2.70
2018,01,14,04,51,2.70
2018,01,14,04,52,2.70
2018,01,14,04,53,2.70
2018,01,14,04,54,2.60
2018,01,14,04,55,2.60
2018,01,14,04,56,2.60
2018,01,14,04,57,2.60
2018,01,14,04,58,2.60
2018,01,14,04,59,2.60
2018,01,14,05,00,2.60
2018,01,14,05,01,2.60
2018,01,14,05,02,2.60
2018,01,14,05,03,2.60
2018,01,14,05,04,2.60
2018,01,14,05,05,2.60
2018,01,14,05,06,2.60
2018,01,14,05,07,2.60
2018,01,14,05,08,2.60
2018,01,14,05,09,2.60
2018,01,14,05,10,2.60
2018,01,14,05,11,2.50
2018,01,14,05,12,2.50
2018,01,14,05,13,2.50
2018,01,14,05,14,2.50
2018,01,14,05,15,2.50
2018,01,14,05,16,2.50
2018,01,14,05,17,2.50
2018,01,14,05,18,2.50
2018,01,14,05,19,2.50
2018,01,14,05,20,2.50
2018,01,14,05,21,2.50
2018,01,14,05,22,2.40
2018,01,14,05,23,2.40
2018,01,14,05,24,2.40
2018,01,14,05,25,2.40
2018,01,14,05,26,2.40
2018,01,14,05,27,2.40
2018,01,14,05,28,2.40
2018,01,14,05,29,2.40
2018,01,14,05,30,2.40
2018,01,14,05,31,2.40
2018,01,14,05,32,2.40
2018,01,14,05,33,2.40
2018,01,14,05,34,2.40
2018,01,14,05,35,2.40
2018,01,14,05,36,2.40
2018,01,14,05,37,2.40
2018,01,14,05,38,2.40
2018,01,14,05,39,2.40
2018,01,14,05,40,2.40
2018,01,14,05,41,2.40
2018,01,14,05,42,2.40
2018,01,14,05,43,2.40
2018,01,14,05,44,2.40
2018,01,14,05,45,2.30
2018,01,14,05,46,2.30
2018,01,14,05,47,2.30
2018,01,14,05,48,2.30
2018,01,14,05,49,2.30
2018,01,14,05,50,2.30
2018,01,14,05,51,2.30
2018,01,14,05,52,2.30
2018,01,14,05,53,2.30
2018,01,14,05,54,2.30
2018,01,14,05,55,2.30
2018,01,14,05,56,2.30
2018,01,14,05,57,2.30
2018,01,14,05,58,2.30
2018,01,14,05,59,2.20
2018,01,14,06,00,2.20
2018,01,14,06,01,2.20
2018,01,14,06,02,2.20
2018,01,14,06,03,2.20
2018,01,14,06,04,2.20
2018,01,14,06,05,2.20
2018,01,14,06,06,2.10
2018,01,14,06,07,2.10
2018,01,14,06,08,2.10
2018,01,14,06,09,2.10
2018,01,14,06,10,2.10
2018,01,14,06,11,2.10
2018,01,14,06,12,2.10
2018,01,14,06,13,2.10
2018,01,14,06,14,2.10
2018,01,14,06,15,2.10
2018,01,14,06,16,2.10
2018,01,14,06,17,2.10
2018,01,14,06,18,2.10
2018,01,14,06,19,2.10
2018,01,14,06,20,2.10
2018,01,14,06,21,2.10
2018,01,14,06,22,2.10
2018,01,14,06,23,2.10
2018,01,14,06,24,2.10
2018,01,14,06,25,2.10
2018,01,14,06,26,2.10
2018,01,14,06,27,2.10
2018,01,14,06,28,2.10
2018,01,14,06,29,2.10
2018,01,14,06,30,2.10
2018,01,14,06,31,2.10
2018,01,14,06,32,2.10
2018,01,14,06,33,2.10
2018,01,14,06,34,2.10
2018,01,14,06,35,2.10
2018,01,14,06,36,2.10
2018,01,14,06,37,2.10
2018,01,14,06,38,2.20
2018,01,14,06,39,2.20
2018,01,14,06,40,2.20
2018,01,14,06,41,2.20
2018,01,14,06,42,2.20
2018,01,14,06,43,2.20
2018,01,14,06,44,2.20
2018,01,14,06,45,2.20
2018,01,14,06,46,2.20
2018,01,14,06,47,2.30
2018,01,14,06,48,2.30
2018,01,14,06,49,2.30
2018,01,14,06,50,2.30
2018,01,14,06,51,2.30
2018,01,14,06,52,2.30
2018,01,14,06,53,2.30
2018,01,14,06,54,2.40
2018,01,14,06,55,2.40
2018,01,14,06,56,2.40
2018,01,14,06,57,2.40
2018,01,14,06,58,2.40
2018,01,14,06,59,2.40
2018,01,14,07,00,2.40
2018,01,14,07,01,2.50
2018,01,14,07,02,2.50
2018,01,14,07,03,2.50
2018,01,14,07,04,2.50
2018,01,14,07,05,2.60
2018,01,14,07,06,2.60
2018,01,14,07,07,2.60
2018,01,14,07,08,2.60
2018,01,14,07,09,2.60
2018,01,14,07,10,2.60
2018,01,14,07,11,2.60
2018,01,14,07,12,2.60
2018,01,14,07,13,2.60
2018,01,14,07,14,2.60
2018,01,14,07,15,2.60
2018,01,14,07,16,2.60
2018,01,14,07,17,2.70
2018,01,14,07,18,2.70
2018,01,14,07,19,2.70
2018,01,14,07,20,2.70
2018,01,14,07,21,2.70
2018,01,14,07,22,2.70
2018,01,14,07,23,2.70
2018,01,14,07,24,2.60
2018,01,14,07,25,2.60
2018,01,14,07,26,2.60
2018,01,14,07,27,2.60
2018,01,14,07,28,2.60
2018,01,14,07,29,2.60
2018,01,14,07,30,2.60
2018,01,14,07,31,2.60
2018,01,14,07,32,2.60
2018,01,14,07,33,2.60
2018,01,14,07,34,2.60
2018,01,14,07,35,2.50
2018,01,14,07,36,2.50
2018,01,14,07,37,2.50
2018,01,14,07,38,2.40
2018,01,14,07,39,2.40
2018,01,14,07,40,2.40
2018,01,14,07,41,2.40
2018,01,14,07,42,2.30
2018,01,14,07,43,2.30
2018,01,14,07,44,2.30
2018,01,14,07,45,2.30
2018,01,14,07,46,2.20
2018,01,14,07,47,2.20
2018,01,14,07,48,2.20
2018,01,14,07,49,2.20
2018,01,14,07,50,2.20
2018,01,14,07,51,2.20
2018,01,14,07,52,2.10
2018,01,14,07,53,2.10
2018,01,14,07,54,2.10
2018,01,14,07,55,2.10
2018,01,14,07,56,2.00
2018,01,14,07,57,2.00
2018,01,14,07,58,2.00
2018,01,14,07,59,2.00
2018,01,14,08,00,1.90
2018,01,14,08,01,1.90
2018,01,14,08,02,1.90
2018,01,14,08,03,1.90
2018,01,14,08,04,1.80
2018,01,14,08,05,1.80
2018,01,14,08,06,1.80
2018,01,14,08,07,1.80
2018,01,14,08,08,1.80
2018,01,14,08,09,1.80
2018,01,14,08,10,1.70
2018,01,14,08,11,1.70
2018,01,14,08,12,1.70
2018,01,14,08,13,1.70
2018,01,14,08,14,1.70
2018,01,14,08,15,1.70
2018,01,14,08,16,1.70
2018,01,14,08,17,1.60
2018,01,14,08,18,1.60
2018,01,14,08,19,1.60
2018,01,14,08,20,1.60
2018,01,14,08,21,1.60
2018,01,14,08,22,1.60
2018,01,14,08,23,1.60
2018,01,14,08,24,1.60
2018,01,14,08,25,1.50
2018,01,14,08,26,1.50
2018,01,14,08,27,1.50
2018,01,14,08,28,1.50
2018,01,14,08,29,1.50
2018,01,14,08,30,1.40
2018,01,14,08,31,1.40
2018,01,14,08,32,1.40
2018,01,14,08,33,1.40
2018,01,14,08,34,1.40
2018,01,14,08,35,1.40
2018,01,14,08,36,1.40
2018,01,14,08,37,1.40
2018,01,14,08,38,1.40
2018,01,14,08,39,1.40
2018,01,14,08,40,1.40
2018,01,14,08,41,1.40
2018,01,14,08,42,1.40
2018,01,14,08,43,1.40
2018,01,14,08,44,1.30
2018,01,14,08,45,1.30
2018,01,14,08,46,1.30
2018,01,14,08,47,1.30
2018,01,14,08,48,1.30
2018,01,14,08,49,1.30
2018,01,14,08,50,1.30
2018,01,14,08,51,1.30
2018,01,14,08,52,1.30
2018,01,14,08,53,1.30
2018,01,14,08,54,1.30
2018,01,14,08,55,1.40
2018,01,14,08,56,1.40
2018,01,14,08,57,1.40
2018,01,14,08,58,1.40
2018,01,14,08,59,1.40
2018,01,14,09,00,1.40
2018,01,14,09,01,1.40
2018,01,14,09,02,1.40
2018,01,14,09,03,1.40
2018,01,14,09,04,1.40
2018,01,14,09,05,1.40
2018,01,14,09,06,1.40
2018,01,14,09,07,1.50
2018,01,14,09,08,1.50
2018,01,14,09,09,1.50
2018,01,14,09,10,1.50
2018,01,14,09,11,1.50
2018,01,14,09,12,1.60
2018,01,14,09,13,1.60
2018,01,14,09,14,1.60
2018,01,14,09,15,1.60
2018,01,14,09,16,1.60
2018,01,14,09,17,1.60
2018,01,14,09,18,1.60
2018,01,14,09,19,1.60
2018,01,14,09,20,1.60
2018,01,14,09,21,1.60
2018,01,14,09,22,1.60
2018,01,14,09,23,1.60
2018,01,14,09,24,1.60
2018,01,14,09,25,1.60
2018,01,14,09,26,1.60
2018,01,14,09,27,1.60
2018,01,14,09,28,1.60
2018,01,14,09,29,1.60
2018,01,14,09,30,1.60
2018,01,14,09,31,1.60
2018,01,14,09,32,1.70
2018,01,14,09,33,1.70
2018,01,14,09,34,1.70
2018,01,14,09,35,1.70
2018,01,14,09,36,1.70
2018,01,14,09,37,1.70
2018,01,14,09,38,1.70
2018,01,14,09,39,1.70
2018,01,14,09,40,1.70
2018,01,14,09,41,1.70
2018,01,14,09,42,1.80
2018,01,14,09,43,1.80
2018,01,14,09,44,1.80
2018,01,14,09,45,1.80
2018,01,14,09,46,1.80
2018,01,14,09,47,1.90
2018,01,14,09,48,1.90
2018,01,14,09,49,1.90
2018,01,14,09,50,1.90
2018,01,14,09,51,2.00
2018,01,14,09,52,2.00
2018,01,14,09,53,2.00
2018,01,14,09,54,2.00
2018,01,14,09,55,2.10
2018,01,14,09,56,2.10
2018,01,14,09,57,2.10
2018,01,14,09,58,2.10
2018,01,14,09,59,2.10
2018,01,14,10,00,2.20
2018,01,14,10,01,2.20
2018,01,14,10,02,2.20
2018,01,14,10,03,2.20
2018,01,14,10,04,2.30
2018,01,14,10,05,2.30
2018,01,14,10,06,2.30
2018,01,14,10,07,2.30
2018,01,14,10,08,2.40
2018,01,14,10,09,2.40
2018,01,14,10,10,2.40
2018,01,14,10,11,2.50
2018,01,14,10,12,2.50
2018,01,14,10,13,2.60
2018,01,14,10,14,2.60
2018,01,14,10,15,2.60
2018,01,14,10,16,2.60
2018,01,14,10,17,2.70
2018,01,14,10,18,2.70
2018,01,14,10,19,2.70
2018,01,14,10,20,2.70
2018,01,14,10,21,2.80
2018,01,14,10,22,2.80
2018,01,14,10,23,2.80
2018,01,14,10,24,2.80
2018,01,14,10,25,2.90
2018,01,14,10,26,2.90
2018,01,14,10,27,2.90
2018,01,14,10,28,2.90
2018,01,14,10,29,3.00
2018,01,14,10,30,3.00
2018,01,14,10,31,3.10
2018,01,14,10,32,3.10
2018,01,14,10,33,3.20
2018,01,14,10,34,3.20
2018,01,14,10,35,3.20
2018,01,14,10,36,3.20
2018,01,14,10,37,3.30
2018,01,14,10,38,3.30
2018,01,14,10,39,3.30
2018,01,14,10,40,3.40
2018,01,14,10,41,3.40
2018,01,14,10,42,3.50
2018,01,14,10,43,3.60
2018,01,14,10,44,3.60
2018,01,14,10,45,3.70
2018,01,14,10,46,3.70
2018,01,14,10,47,3.80
2018,01,14,10,48,3.80
2018,01,14,10,49,3.80
2018,01,14,10,50,3.90
2018,01,14,10,51,4.00
2018,01,14,10,52,4.00
2018,01,14,10,53,4.10
2018,01,14,10,54,4.20
2018,01,14,10,55,4.20
2018,01,14,10,56,4.30
2018,01,14,10,57,4.30
2018,01,14,10,58,4.40
2018,01,14,10,59,4.50
2018,01,14,11,00,4.60
2018,01,14,11,01,4.60
2018,01,14,11,02,4.70
2018,01,14,11,03,4.80
2018,01,14,11,04,4.90
2018,01,14,11,05,5.00
2018,01,14,11,06,5.00
2018,01,14,11,07,5.10
2018,01,14,11,08,5.10
2018,01,14,11,09,5.10
2018,01,14,11,10,5.20
2018,01,14,11,11,5.20
2018,01,14,11,12,5.20
2018,01,14,11,13,5.20
2018,01,14,11,14,5.30
2018,01,14,11,15,5.30
2018,01,14,11,16,5.30
2018,01,14,11,17,5.30
2018,01,14,11,18,5.30
2018,01,14,11,19,5.30
2018,01,14,11,20,5.30
2018,01,14,11,21,5.30
2018,01,14,11,22,5.30
2018,01,14,11,23,5.30
2018,01,14,11,24,5.30
2018,01,14,11,25,5.30
2018,01,14,11,26,5.30
2018,01,14,11,27,5.30
2018,01,14,11,28,5.30
2018,01,14,11,29,5.30
2018,01,14,11,30,5.30
2018,01,14,11,31,5.30
2018,01,14,11,32,5.30
2018,01,14,11,33,5.30
2018,01,14,11,34,5.30
2018,01,14,11,35,5.40
2018,01,14,11,36,5.40
2018,01,14,11,37,5.40
2018,01,14,11,38,5.50
2018,01,14,11,39,5.50
2018,01,14,11,40,5.60
2018,01,14,11,41,5.70
2018,01,14,11,42,5.70
2018,01,14,11,43,5.80
2018,01,14,11,44,5.80
2018,01,14,11,45,5.80
2018,01,14,11,46,5.90
2018,01,14,11,47,5.90
2018,01,14,11,48,5.90
2018,01,14,11,49,6.00
2018,01,14,11,50,6.10
2018,01,14,11,51,6.10
2018,01,14,11,52,6.20
2018,01,14,11,53,6.20
2018,01,14,11,54,6.30
2018,01,14,11,55,6.30
2018,01,14,11,56,6.40
2018,01,14,11,57,6.40
2018,01,14,11,58,6.50
2018,01,14,11,59,6.60
2018,01,14,12,00,6.60
2018,01,14,12,01,6.70
2018,01,14,12,02,6.70
2018,01,14,12,03,6.80
2018,01,14,12,04,6.80
2018,01,14,12,05,6.90
2018,01,14,12,06,6.90
2018,01,14,12,07,6.90
2018,01,14,12,08,6.90
2018,01,14,12,09,7.00
2018,01,14,12,10,7.10
2018,01,14,12,11,7.10
2018,01,14,12,12,7.10
2018,01,14,12,13,7.20
2018,01,14,12,14,7.20
2018,01,14,12,15,7.30
2018,01,14,12,16,7.30
2018,01,14,12,17,7.30
2018,01,14,12,18,7.30
2018,01,14,12,19,7.30
2018,01,14,12,20,7.30
2018,01,14,12,21,7.40
2018,01,14,12,22,7.40
2018,01,14,12,23,7.40
2018,01,14,12,24,7.40
2018,01,14,12,25,7.40
2018,01,14,12,26,7.40
2018,01,14,12,27,7.40
2018,01,14,12,28,7.50
2018,01,14,12,29,7.50
2018,01,14,12,30,7.50
2018,01,14,12,31,7.50
2018,01,14,12,32,7.60
2018,01,14,12,33,7.60
2018,01,14,12,34,7.60
2018,01,14,12,35,7.70
2018,01,14,12,36,7.70
2018,01,14,12,37,7.70
2018,01,14,12,38,7.80
2018,01,14,12,39,7.80
2018,01,14,12,40,7.80
2018,01,14,12,41,7.90
2018,01,14,12,42,7.90
2018,01,14,12,43,8.00
2018,01,14,12,44,8.00
2018,01,14,12,45,8.00
2018,01,14,12,46,8.00
2018,01,14,12,47,8.10
2018,01,14,12,48,8.10
2018,01,14,12,49,8.10
2018,01,14,12,50,8.20
2018,01,14,12,51,8.20
2018,01,14,12,52,8.20
2018,01,14,12,53,8.30
2018,01,14,12,54,8.30
2018,01,14,12,55,8.40
2018,01,14,12,56,8.40
2018,01,14,12,57,8.40
2018,01,14,12,58,8.50
2018,01,14,12,59,8.50
2018,01,14,13,00,8.60
2018,01,14,13,01,8.60
2018,01,14,13,02,8.60
2018,01,14,13,03,8.70
2018,01,14,13,04,8.70
2018,01,14,13,05,8.70
2018,01,14,13,06,8.70
2018,01,14,13,07,8.70
2018,01,14,13,08,8.70
2018,01,14,13,09,8.70
2018,01,14,13,10,8.70
2018,01,14,13,11,8.70
2018,01,14,13,12,8.80
2018,01,14,13,13,8.80
2018,01,14,13,14,8.80
2018,01,14,13,15,8.80
2018,01,14,13,16,8.90
2018,01,14,13,17,8.90
2018,01,14,13,18,9.00
2018,01,14,13,19,9.00
2018,01,14,13,20,9.00
2018,01,14,13,21,9.10
2018,01,14,13,22,9.10
2018,01,14,13,23,9.10
2018,01,14,13,24,9.10
2018,01,14,13,25,9.10
2018,01,14,13,26,9.10
2018,01,14,13,27,9.10
2018,01,14,13,28,9.10
2018,01,14,13,29,9.20
2018,01,14,13,30,9.20
2018,01,14,13,31,9.20
2018,01,14,13,32,9.20
2018,01,14,13,33,9.20
2018,01,14,13,34,9.30
2018,01,14,13,35,9.30
2018,01,14,13,36,9.40
2018,01,14,13,37,9.40
2018,01,14,13,38,9.40
2018,01,14,13,39,9.50
2018,01,14,13,40,9.50
2018,01,14,13,41,9.50
2018,01,14,13,42,9.60
2018,01,14,13,43,9.60
2018,01,14,13,44,9.60
2018,01,14,13,45,9.70
2018,01,14,13,46,9.70
2018,01,14,13,47,9.80
2018,01,14,13,48,9.80
2018,01,14,13,49,9.80
2018,01,14,13,50,9.90
2018,01,14,13,51,9.90
2018,01,14,13,52,10.00
2018,01,14,13,53,10.00
2018,01,14,13,54,10.10
2018,01,14,13,55,10.10
2018,01,14,13,56,10.10
2018,01,14,13,57,10.10
2018,01,14,13,58,10.10
2018,01,14,13,59,10.10
2018,01,14,14,00,10.10
2018,01,14,14,01,10.10
2018,01,14,14,02,10.10
2018,01,14,14,03,10.10
2018,01,14,14,04,10.10
2018,01,14,14,05,10.10
2018,01,14,14,06,10.10
2018,01,14,14,07,10.10
2018,01,14,14,08,10.10
2018,01,14,14,09,10.10
2018,01,14,14,10,10.10
2018,01,14,14,11,10.10
2018,01,14,14,12,10.20
2018,01,14,14,13,10.20
2018,01,14,14,14,10.20
2018,01,14,14,15,10.20
2018,01,14,14,16,10.20
2018,01,14,14,17,10.20
2018,01,14,14,18,10.20
2018,01,14,14,19,10.20
2018,01,14,14,20,10.20
2018,01,14,14,21,10.20
2018,01,14,14,22,10.20
2018,01,14,14,23,10.20
2018,01,14,14,24,10.20
2018,01,14,14,25,10.20
2018,01,14,14,26,10.20
2018,01,14,14,27,10.20
2018,01,14,14,28,10.20
2018,01,14,14,29,10.20
2018,01,14,14,30,10.20
2018,01,14,14,31,10.20
2018,01,14,14,32,10.20
2018,01,14,14,33,10.20
2018,01,14,14,34,10.20
2018,01,14,14,35,10.20
2018,01,14,14,36,10.20
2018,01,14,14,37,10.20
2018,01,14,14,38,10.20
2018,01,14,14,39,10.20
2018,01,14,14,40,10.20
2018,01,14,14,41,10.20
2018,01,14,14,42,10.20
2018,01,14,14,43,10.20
2018,01,14,14,44,10.20
2018,01,14,14,45,10.20
2018,01,14,14,46,10.20
2018,01,14,14,47,10.20
2018,01,14,14,48,10.10
2018,01,14,14,49,10.10
2018,01,14,14,50,10.10
2018,01,14,14,51,10.10
2018,01,14,14,52,10.10
2018,01,14,14,53,10.10
2018,01,14,14,54,10.10
2018,01,14,14,55,10.10
2018,01,14,14,56,10.10
2018,01,14,14,57,10.10
2018,01,14,14,58,10.20
2018,01,14,14,59,10.20
2018,01,14,15,00,10.20
2018,01,14,15,01,10.20
2018,01,14,15,02,10.20
2018,01,14,15,03,10.20
2018,01,14,15,04,10.20
2018,01,14,15,05,10.20
2018,01,14,15,06,10.20
2018,01,14,15,07,10.20
2018,01,14,15,08,10.20
2018,01,14,15,09,10.20
2018,01,14,15,10,10.20
2018,01,14,15,11,10.20
2018,01,14,15,12,10.20
2018,01,14,15,13,10.20
2018,01,14,15,14,10.20
2018,01,14,15,15,10.20
2018,01,14,15,16,10.20
2018,01,14,15,17,10.20
2018,01,14,15,18,10.20
2018,01,14,15,19,10.20
2018,01,14,15,20,10.10
2018,01,14,15,21,10.10
2018,01,14,15,22,10.10
2018,01,14,15,23,10.10
2018,01,14,15,24,10.10
2018,01,14,15,25,10.10
2018,01,14,15,26,10.10
2018,01,14,15,27,10.10
2018,01,14,15,28,10.10
2018,01,14,15,29,10.10
2018,01,14,15,30,10.10
2018,01,14,15,31,10.10
2018,01,14,15,32,10.10
2018,01,14,15,33,10.00
2018,01,14,15,34,10.00
2018,01,14,15,35,9.90
2018,01,14,15,36,9.90
2018,01,14,15,37,9.90
2018,01,14,15,38,9.90
2018,01,14,15,39,9.80
2018,01,14,15,40,9.80
2018,01,14,15,41,9.80
2018,01,14,15,42,9.70
2018,01,14,15,43,9.60
2018,01,14,15,44,9.60
2018,01,14,15,45,9.50
2018,01,14,15,46,9.40
2018,01,14,15,47,9.30
2018,01,14,15,48,9.30
2018,01,14,15,49,9.20
2018,01,14,15,50,9.20
2018,01,14,15,51,9.10
2018,01,14,15,52,9.10
2018,01,14,15,53,9.00
2018,01,14,15,54,9.00
2018,01,14,15,55,8.90
2018,01,14,15,56,8.90
2018,01,14,15,57,8.80
2018,01,14,15,58,8.80
2018,01,14,15,59,8.70
2018,01,14,16,00,8.60
2018,01,14,16,01,8.60
2018,01,14,16,02,8.50
2018,01,14,16,03,8.40
2018,01,14,16,04,8.40
2018,01,14,16,05,8.30
2018,01,14,16,06,8.30
2018,01,14,16,07,8.20
2018,01,14,16,08,8.20
2018,01,14,16,09,8.10
2018,01,14,16,10,8.10
2018,01,14,16,11,8.00
2018,01,14,16,12,8.00
2018,01,14,16,13,7.90
2018,01,14,16,14,7.90
2018,01,14,16,15,7.80
2018,01,14,16,16,7.80
2018,01,14,16,17,7.80
2018,01,14,16,18,7.80
2018,01,14,16,19,7.80
2018,01,14,16,20,7.70
2018,01,14,16,21,7.70
2018,01,14,16,22,7.70
2018,01,14,16,23,7.60
2018,01,14,16,24,7.60
2018,01,14,16,25,7.60
2018,01,14,16,26,7.50
2018,01,14,16,27,7.50
2018,01,14,16,28,7.50
2018,01,14,16,29,7.40
2018,01,14,16,30,7.40
2018,01,14,16,31,7.40
2018,01,14,16,32,7.30
2018,01,14,16,33,7.30
2018,01,14,16,34,7.30
2018,01,14,16,35,7.20
2018,01,14,16,36,7.20
2018,01,14,16,37,7.20
2018,01,14,16,38,7.20
2018,01,14,16,39,7.10
2018,01,14,16,40,7.10
2018,01,14,16,41,7.00
2018,01,14,16,42,7.00
2018,01,14,16,43,7.00
2018,01,14,16,44,6.90
2018,01,14,16,45,6.90
2018,01,14,16,46,6.90
2018,01,14,16,47,6.80
2018,01,14,16,48,6.80
2018,01,14,16,49,6.70
2018,01,14,16,50,6.70
2018,01,14,16,51,6.60
2018,01,14,16,52,6.60
2018,01,14,16,53,6.60
2018,01,14,16,54,6.50
2018,01,14,16,55,6.50
2018,01,14,16,56,6.40
2018,01,14,16,57,6.40
2018,01,14,16,58,6.30
2018,01,14,16,59,6.30
2018,01,14,17,00,6.30
2018,01,14,17,01,6.30
2018,01,14,17,02,6.20
2018,01,14,17,03,6.20
2018,01,14,17,04,6.10
2018,01,14,17,05,6.10
2018,01,14,17,06,6.00
2018,01,14,17,07,6.00
2018,01,14,17,08,5.90
2018,01,14,17,09,5.90
2018,01,14,17,10,5.80
2018,01,14,17,11,5.80
2018,01,14,17,12,5.80
2018,01,14,17,13,5.80
2018,01,14,17,14,5.70
2018,01,14,17,15,5.70
2018,01,14,17,16,5.70
2018,01,14,17,17,5.70
2018,01,14,17,18,5.70
2018,01,14,17,19,5.60
2018,01,14,17,20,5.60
2018,01,14,17,21,5.60
2018,01,14,17,22,5.60
2018,01,14,17,23,5.60
2018,01,14,17,24,5.50
2018,01,14,17,25,5.50
2018,01,14,17,26,5.50
2018,01,14,17,27,5.40
2018,01,14,17,28,5.40
2018,01,14,17,29,5.40
2018,01,14,17,30,5.40
2018,01,14,17,31,5.40
2018,01,14,17,32,5.40
2018,01,14,17,33,5.40
2018,01,14,17,34,5.40
2018,01,14,17,35,5.30
2018,01,14,17,36,5.30
2018,01,14,17,37,5.30
2018,01,14,17,38,5.30
2018,01,14,17,39,5.30
2018,01,14,17,40,5.30
2018,01,14,17,41,5.30
2018,01,14,17,42,5.30
2018,01,14,17,43,5.20
2018,01,14,17,44,5.20
2018,01,14,17,45,5.20
2018,01,14,17,46,5.20
2018,01,14,17,47,5.20
2018,01,14,17,48,5.20
2018,01,14,17,49,5.20
2018,01,14,17,50,5.20
2018,01,14,17,51,5.20
2018,01,14,17,52,5.20
2018,01,14,17,53,5.20
2018,01,14,17,54,5.20
2018,01,14,17,55,5.20
2018,01,14,17,56,5.20
2018,01,14,17,57,5.20
2018,01,14,17,58,5.10
2018,01,14,17,59,5.10
2018,01,14,18,00,5.10
2018,01,14,18,01,5.10
2018,01,14,18,02,5.10